When you browse on this site, cookies collect data to enhance your experience and personalize the content and advertising you see.
Visit our Privacy Policy to learn more. By continuing to use the site, you agree to this use of cookies and data.
  • In Hungary
  • List of Countries
  • For 7 days
  • Water Temperature
  • Satellite Maps
  • Weather Map
  • News
  • Weather Widgets
  • user-avatar
    Login

    Hourly Weather Mardan

    Today, 18 November, Sunday

    Time Temperature Precipitation Wind Pressure Humidity
    00:00 +19°C° 0 mm 1 mps 732 mmHg 19%
    01:00 +19°C° 0 mm 1 mps 732 mmHg 20%
    02:00 +19°C° 0 mm 1 mps 732 mmHg 20%
    03:00 +18°C° 0 mm 1 mps 733 mmHg 20%
    04:00 +18°C° 0 mm 1 mps 733 mmHg 20%
    05:00 +18°C° 0 mm 1 mps 733 mmHg 21%
    06:00 +18°C° 0 mm 1 mps 733 mmHg 22%
    07:00 +18°C° 0 mm 1 mps 733 mmHg 22%
    08:00 +18°C° 0 mm 2 mps 734 mmHg 22%
    09:00 +21°C° 0 mm 1 mps 734 mmHg 19%
    10:00 +23°C° 0 mm 1 mps 734 mmHg 17%
    11:00 +25°C° 0 mm 1 mps 734 mmHg 14%
    12:00 +26°C° 0 mm 1 mps 734 mmHg 13%
    13:00 +27°C° 0 mm 1 mps 733 mmHg 13%
    14:00 +27°C° 0 mm 2 mps 733 mmHg 12%
    15:00 +26°C° 0 mm 1 mps 733 mmHg 14%
    16:00 +25°C° 0 mm 1 mps 733 mmHg 16%
    17:00 +23°C° 0 mm 1 mps 733 mmHg 18%
    18:00 +23°C° 0 mm 1 mps 733 mmHg 18%
    19:00 +22°C° 0 mm 1 mps 734 mmHg 19%
    20:00 +21°C° 0 mm 1 mps 734 mmHg 19%
    21:00 +21°C° 0 mm 1 mps 734 mmHg 20%
    22:00 +20°C° 0 mm 1 mps 734 mmHg 20%
    23:00 +19°C° 0 mm 2 mps 735 mmHg 21%

    Tomorrow, 19 November, Monday

    Time Temperature Precipitation Wind Pressure Humidity
    00:00 +19°C° 0 mm 2 mps 735 mmHg 22%
    01:00 +18°C° 0 mm 2 mps 735 mmHg 22%
    02:00 +18°C° 0 mm 2 mps 735 mmHg 23%
    03:00 +18°C° 0 mm 2 mps 735 mmHg 23%
    04:00 +18°C° 0 mm 2 mps 735 mmHg 24%
    05:00 +18°C° 0 mm 2 mps 735 mmHg 25%
    06:00 +18°C° 0 mm 2 mps 736 mmHg 26%
    07:00 +18°C° 0 mm 2 mps 736 mmHg 28%
    08:00 +18°C° 0 mm 2 mps 737 mmHg 29%
    09:00 +20°C° 0 mm 2 mps 737 mmHg 26%
    10:00 +23°C° 0 mm 2 mps 737 mmHg 24%
    11:00 +25°C° 0 mm 2 mps 738 mmHg 21%
    12:00 +26°C° 0 mm 2 mps 737 mmHg 20%
    13:00 +26°C° 0 mm 2 mps 737 mmHg 19%
    14:00 +27°C° 0 mm 2 mps 737 mmHg 19%
    15:00 +26°C° 0 mm 1 mps 736 mmHg 20%
    16:00 +25°C° 0 mm 1 mps 736 mmHg 22%
    17:00 +24°C° 0 mm 1 mps 736 mmHg 24%
    18:00 +23°C° 0 mm 2 mps 736 mmHg 25%
    19:00 +21°C° 0 mm 2 mps 737 mmHg 25%
    20:00 +20°C° 0 mm 2 mps 737 mmHg 26%
    21:00 +20°C° 0 mm 2 mps 737 mmHg 27%
    22:00 +19°C° 0 mm 2 mps 737 mmHg 28%
    23:00 +19°C° 0 mm 2 mps 737 mmHg 29%

    Day after tomorrow, 20 November, Tuesday

    Time Temperature Precipitation Wind Pressure Humidity
    00:00 +18°C° 0 mm 2 mps 737 mmHg 29%
    01:00 +18°C° 0 mm 2 mps 737 mmHg 29%
    02:00 +18°C° 0 mm 2 mps 737 mmHg 29%
    03:00 +17°C° 0 mm 2 mps 737 mmHg 29%
    04:00 +17°C° 0 mm 2 mps 737 mmHg 29%
    05:00 +16°C° 0 mm 2 mps 737 mmHg 29%
    06:00 +17°C° 0 mm 2 mps 738 mmHg 29%
    07:00 +17°C° 0 mm 2 mps 738 mmHg 29%
    08:00 +17°C° 0 mm 2 mps 738 mmHg 29%
    09:00 +19°C° 0 mm 2 mps 738 mmHg 25%
    10:00 +23°C° 0 mm 2 mps 738 mmHg 22%
    11:00 +25°C° 0 mm 2 mps 738 mmHg 18%
    12:00 +25°C° 0 mm 2 mps 738 mmHg 18%
    13:00 +26°C° 0 mm 2 mps 737 mmHg 17%
    14:00 +27°C° 0 mm 2 mps 737 mmHg 16%
    15:00 +26°C° 0 mm 2 mps 736 mmHg 19%
    16:00 +24°C° 0 mm 1 mps 736 mmHg 21%
    17:00 +23°C° 0 mm 1 mps 735 mmHg 23%
    18:00 +23°C° 0 mm 1 mps 736 mmHg 24%
    19:00 +22°C° 0 mm 1 mps 736 mmHg 25%
    20:00 +20°C° 0 mm 2 mps 737 mmHg 26%
    21:00 +19°C° 0 mm 2 mps 737 mmHg 26%
    22:00 +19°C° 0 mm 2 mps 737 mmHg 26%
    23:00 +18°C° 0 mm 2 mps 737 mmHg 26%

    21 November, Wednesday

    Time Temperature Precipitation Wind Pressure Humidity
    00:00 +18°C° 0 mm 2 mps 737 mmHg 26%
    01:00 +17°C° 0 mm 2 mps 737 mmHg 26%
    02:00 +17°C° 0 mm 2 mps 737 mmHg 25%
    03:00 +17°C° 0 mm 2 mps 736 mmHg 25%
    04:00 +16°C° 0 mm 2 mps 736 mmHg 25%
    05:00 +16°C° 0 mm 2 mps 736 mmHg 25%
    06:00 +16°C° 0 mm 2 mps 736 mmHg 25%
    07:00 +17°C° 0 mm 2 mps 737 mmHg 24%
    08:00 +17°C° 0 mm 2 mps 737 mmHg 24%
    09:00 +19°C° 0 mm 2 mps 737 mmHg 21%
    10:00 +21°C° 0 mm 2 mps 737 mmHg 18%
    11:00 +25°C° 0 mm 2 mps 737 mmHg 14%
    12:00 +26°C° 0 mm 2 mps 736 mmHg 14%
    13:00 +26°C° 0 mm 2 mps 736 mmHg 13%
    14:00 +27°C° 0 mm 2 mps 735 mmHg 12%
    15:00 +26°C° 0 mm 2 mps 735 mmHg 14%
    16:00 +25°C° 0 mm 1 mps 735 mmHg 16%
    17:00 +23°C° 0 mm 1 mps 734 mmHg 18%
    18:00 +22°C° 0 mm 1 mps 735 mmHg 18%
    19:00 +21°C° 0 mm 2 mps 736 mmHg 18%
    20:00 +20°C° 0 mm 2 mps 736 mmHg 19%
    21:00 +20°C° 0 mm 2 mps 736 mmHg 19%
    22:00 +19°C° 0 mm 2 mps 736 mmHg 19%
    23:00 +19°C° 0 mm 2 mps 736 mmHg 19%

    22 November, Thursday

    Time Temperature Precipitation Wind Pressure Humidity
    00:00 +18°C° 0 mm 2 mps 736 mmHg 18%
    01:00 +18°C° 0 mm 2 mps 736 mmHg 18%
    02:00 +19°C° 0 mm 1 mps 736 mmHg 17%
    03:00 +19°C° 0 mm 1 mps 735 mmHg 17%
    04:00 +19°C° 0 mm 1 mps 735 mmHg 17%
    05:00 +19°C° 0 mm 1 mps 735 mmHg 17%
    06:00 +19°C° 0 mm 1 mps 736 mmHg 18%
    07:00 +19°C° 0 mm 2 mps 737 mmHg 18%
    08:00 +19°C° 0 mm 2 mps 737 mmHg 18%
    09:00 +20°C° 0 mm 2 mps 738 mmHg 21%
    10:00 +20°C° 0 mm 3 mps 738 mmHg 23%
    11:00 +21°C° 0 mm 3 mps 739 mmHg 25%
    12:00 +21°C° 0 mm 3 mps 738 mmHg 26%
    13:00 +21°C° 0 mm 3 mps 738 mmHg 26%
    14:00 +22°C° 0 mm 3 mps 738 mmHg 27%
    15:00 +21°C° 0 mm 3 mps 738 mmHg 28%
    16:00 +20°C° 0 mm 3 mps 738 mmHg 29%
    17:00 +20°C° 0 mm 3 mps 738 mmHg 31%
    18:00 +19°C° 0 mm 3 mps 738 mmHg 32%
    19:00 +18°C° 0 mm 3 mps 739 mmHg 33%
    20:00 +17°C° 0 mm 3 mps 740 mmHg 35%
    21:00 +17°C° 0 mm 3 mps 740 mmHg 35%
    22:00 +16°C° 0 mm 3 mps 740 mmHg 36%
    23:00 +16°C° 0 mm 2 mps 740 mmHg 37%

    23 November, Friday

    Time Temperature Precipitation Wind Pressure Humidity
    00:00 +16°C° 0 mm 2 mps 740 mmHg 37%
    01:00 +16°C° 0 mm 2 mps 740 mmHg 37%
    02:00 +15°C° 0 mm 2 mps 740 mmHg 37%
    03:00 +15°C° 0 mm 2 mps 739 mmHg 36%
    04:00 +15°C° 0 mm 2 mps 739 mmHg 36%
    05:00 +15°C° 0 mm 2 mps 739 mmHg 35%
    06:00 +15°C° 0 mm 2 mps 739 mmHg 35%
    07:00 +15°C° 0 mm 2 mps 740 mmHg 35%
    08:00 +16°C° 0 mm 2 mps 740 mmHg 34%
    09:00 +18°C° 0 mm 2 mps 740 mmHg 30%
    10:00 +20°C° 0 mm 2 mps 740 mmHg 26%
    11:00 +24°C° 0 mm 2 mps 740 mmHg 22%
    12:00 +24°C° 0 mm 3 mps 739 mmHg 21%
    13:00 +25°C° 0 mm 3 mps 739 mmHg 20%
    14:00 +26°C° 0 mm 3 mps 738 mmHg 18%
    15:00 +25°C° 0 mm 3 mps 738 mmHg 21%
    16:00 +24°C° 0 mm 2 mps 737 mmHg 23%
    17:00 +23°C° 0 mm 2 mps 737 mmHg 25%
    18:00 +21°C° 0 mm 2 mps 737 mmHg 26%
    19:00 +20°C° 0 mm 2 mps 738 mmHg 27%
    20:00 +19°C° 0 mm 2 mps 738 mmHg 28%
    21:00 +19°C° 0 mm 2 mps 738 mmHg 28%
    22:00 +18°C° 0 mm 2 mps 738 mmHg 28%
    23:00 +18°C° 0 mm 2 mps 738 mmHg 28%
    Show more